User: anonymous   Login
Location: Fairmont
(43.6520°N, 94.4610°W)
Time: 18:29:45
(UTC-06:00)
Language:

Cosmos-2242 - Orbit

View from above orbital plane
View from above orbital plane
View from above satellite
View from above satellite

Ground track
Ground track

The orbit data is extracted from the following two-line orbital elements,

1 22626U 93024A   15058.52368580  .00001212  00000-0  13326-3 0  9996
2 22626 082.5219 113.9222 0020116 034.3848 325.8666 14.86683911181190
Epoch (UTC): 27 February 2015 12:34:06
Eccentricity: 0.0020116
inclination: 82.5219°
perigee height: 594 km
apogee height: 622 km
right ascension of ascending node: 113.9222°
argument of perigee: 34.3848°
revolutions per day: 14.86683911
mean anomaly at epoch: 325.8666°
orbit number at epoch: 18119

The dashed part of the orbit path shows where the satellite is in the earth's shadow,  

DLR